Date String (YYYY-MM-DD hh:mm:ss) UTC,Instrument flags,absolute air pressure of the measurement (hPa),sample flow rate (lpm),inlet stack bypass flow (lpm),air temperature of the measurement (°C),ambient temperature measured by the external sensor (°C),aerosol sample conditioner tube jacket temperature (°C),OPC LED temperature (°C),internal box temperature (°C),relative humidity of the measurement (%),span deviation,mass concentration of particles derived from Lorenz-Mie calculation of OPC scattering (μg/m³),mass concentration of particles derived from Lorenz-Mie calculation of OPC scattering (μg/m³),mass concentration of particles derived from Lorenz-Mie calculation of OPC scattering (μg/m³)
DateTimeUTC,F1_M11,P_M11,Q1_M11,Q2_M11,T1_M11,T2_M11,T3_M11,T4_M11,T5_M11,U1_M11,ZSPAN_M11,X2_M11,X0_M11,X1_M11
2023-12-08 09:00:00,SystemResetWarning,0820.1,5.01,000.00,021.6,020.6,000.0,029.9,022.9,11.3,0000.0,0001.12,0002.52,0000.67
2023-12-08 09:01:00,SystemResetWarning,0820.0,4.99,000.00,021.6,020.6,000.0,029.9,022.9,11.4,0000.0,0001.14,0002.58,0000.67
2023-12-08 09:02:00,SystemResetWarning,0820.0,4.99,000.00,021.5,020.6,000.0,029.9,022.9,11.4,0000.0,0001.08,0002.38,0000.67
2023-12-08 09:03:00,SystemResetWarning,0820.2,5.00,000.00,021.5,020.6,000.0,029.9,022.9,11.4,0000.0,0001.09,0002.52,0000.67
2023-12-08 09:04:00,SystemResetWarning,0820.0,5.01,000.00,021.6,020.6,000.0,029.9,022.9,11.4,0000.0,0001.08,0002.57,0000.66
2023-12-08 09:05:00,SystemResetWarning,0820.1,5.01,000.00,021.6,020.6,000.0,029.9,022.9,11.5,0000.0,0001.07,0002.56,0000.65
2023-12-08 09:06:00,SystemResetWarning,0819.9,5.00,000.00,021.6,020.6,000.0,029.9,022.8,11.4,0000.0,0001.06,0002.61,0000.65
2023-12-08 09:07:00,SystemResetWarning,0820.2,5.00,000.00,021.6,020.6,000.0,029.9,022.8,11.3,0000.0,0001.05,0002.59,0000.64
2023-12-08 09:08:00,SystemResetWarning,0820.0,4.99,000.00,021.6,020.6,000.0,029.9,022.9,11.6,0000.0,0000.99,0002.33,0000.63
2023-12-08 09:09:00,SystemResetWarning,0820.0,5.00,000.00,021.5,020.6,000.0,029.9,022.8,11.2,0000.0,0000.98,0002.31,0000.63
2023-12-08 09:10:00,SystemResetWarning,0820.1,5.00,000.00,021.6,020.6,000.0,029.9,022.9,11.3,0000.0,0001.02,0002.35,0000.63
2023-12-08 09:11:00,SystemResetWarning,0820.0,5.01,000.00,021.5,020.6,000.0,029.9,022.9,11.1,0000.0,0001.00,0002.32,0000.62
2023-12-08 09:12:00,SystemResetWarning,0820.1,5.00,000.00,021.5,020.6,000.0,029.9,022.9,11.0,0000.0,0000.99,0002.18,0000.61
2023-12-08 09:13:00,SystemResetWarning,0820.1,5.00,000.00,021.5,020.5,000.0,029.9,022.8,11.1,0000.0,0000.98,0001.99,0000.60
2023-12-08 09:14:00,SystemResetWarning,0820.0,5.00,000.00,021.5,020.5,000.0,029.9,022.8,11.1,0000.0,0000.97,0001.89,0000.60
2023-12-08 09:15:00,SystemResetWarning,0819.9,5.00,000.00,021.5,020.5,000.0,029.9,022.8,10.9,0000.0,0000.98,0001.96,0000.60
2023-12-08 09:16:00,SystemResetWarning,0820.0,5.00,000.00,021.5,020.5,000.0,029.9,022.8,10.9,0000.0,0000.96,0003.15,0000.60
2023-12-08 09:17:00,SystemResetWarning,0820.0,5.00,000.00,021.5,020.5,000.0,029.9,022.7,11.1,0000.0,0000.95,0003.14,0000.59
2023-12-08 09:18:00,SystemResetWarning,0819.9,5.00,000.00,021.5,020.5,000.0,029.9,022.8,11.3,0000.0,0000.96,0003.21,0000.60
2023-12-08 09:19:00,SystemResetWarning,0820.1,5.00,000.00,021.5,020.5,000.0,029.9,022.8,11.5,0000.0,0000.96,0003.21,0000.60
2023-12-08 09:20:00,SystemResetWarning,0820.2,5.01,000.00,021.5,020.5,000.0,029.9,022.8,11.4,0000.0,0000.96,0003.18,0000.60
2023-12-08 09:21:00,SystemResetWarning,0820.1,4.99,000.00,021.5,020.5,000.0,029.9,022.8,11.4,0000.0,0000.92,0003.06,0000.60
2023-12-08 09:22:00,SystemResetWarning,0820.3,5.00,000.00,021.5,020.5,000.0,029.9,022.7,11.4,0000.0,0000.93,0003.28,0000.60
2023-12-08 09:23:00,SystemResetWarning,0820.2,5.00,000.00,021.5,020.5,000.0,029.9,022.8,11.3,0000.0,0000.93,0003.48,0000.61
2023-12-08 09:24:00,SystemResetWarning,0820.3,5.00,000.00,021.5,020.4,000.0,029.9,022.7,11.1,0000.0,0000.93,0003.51,0000.61
2023-12-08 09:25:00,SystemResetWarning,0820.3,5.00,000.00,021.5,020.4,000.0,029.9,022.7,11.0,0000.0,0000.91,0003.44,0000.61
2023-12-08 09:26:00,SystemResetWarning,0820.2,5.01,000.00,021.4,020.4,000.0,029.9,022.7,11.0,0000.0,0000.88,0003.34,0000.61
2023-12-08 09:27:00,SystemResetWarning,0820.2,5.01,000.00,021.4,020.4,000.0,029.9,022.7,10.7,0000.0,0000.88,0001.95,0000.61
2023-12-08 09:28:00,SystemResetWarning,0820.3,5.00,000.00,021.4,020.4,000.0,029.8,022.7,11.0,0000.0,0000.88,0001.93,0000.62
2023-12-08 09:29:00,SystemResetWarning,0820.3,5.00,000.00,021.4,020.4,000.0,029.8,022.7,11.0,0000.0,0000.87,0001.86,0000.62
2023-12-08 09:30:00,SystemResetWarning,0820.3,5.00,000.00,021.4,020.4,000.0,029.8,022.7,11.1,0000.0,0000.87,0003.04,0000.61
2023-12-08 09:31:00,SystemResetWarning,0820.3,5.00,000.00,021.4,020.4,000.0,029.8,022.7,11.1,0000.0,0000.87,0003.46,0000.61
2023-12-08 09:32:00,SystemResetWarning,0820.3,5.00,000.00,021.4,020.5,000.0,029.8,022.8,12.1,0000.0,0000.89,0003.81,0000.62
2023-12-08 09:33:00,SystemResetWarning,0820.3,5.00,000.00,021.4,020.5,000.0,029.8,022.8,12.9,0000.0,0000.89,0003.60,0000.61
2023-12-08 09:34:00,SystemResetWarning,0820.4,5.00,000.00,021.4,020.5,000.0,029.8,022.8,12.8,0000.0,0000.88,0003.42,0000.61
2023-12-08 09:35:00,SystemResetWarning,0820.3,5.00,000.00,021.5,020.6,000.0,029.8,022.8,12.5,0000.0,0000.86,0003.45,0000.60
2023-12-08 09:36:00,SystemResetWarning,0820.3,5.01,000.00,021.5,020.6,000.0,029.8,022.8,11.8,0000.0,0000.84,0003.39,0000.60
2023-12-08 09:37:00,SystemResetWarning,0820.3,5.01,000.00,021.5,020.6,000.0,029.8,022.8,11.8,0000.0,0000.84,0003.41,0000.59
2023-12-08 09:38:00,SystemResetWarning,0820.3,5.00,000.00,021.5,020.6,000.0,029.8,022.9,11.8,0000.0,0000.82,0003.38,0000.59
2023-12-08 09:39:00,SystemResetWarning,0820.4,4.99,000.00,021.5,020.7,000.0,029.8,022.9,11.7,0000.0,0000.81,0003.32,0000.58
2023-12-08 09:40:00,SystemResetWarning,0820.3,4.99,000.00,021.5,020.7,000.0,029.8,022.9,12.0,0000.0,0000.82,0003.30,0000.58
2023-12-08 09:41:00,SystemResetWarning,0820.4,4.99,000.00,021.5,020.7,000.0,029.8,022.9,12.0,0000.0,0000.78,0002.01,0000.58
2023-12-08 09:42:00,SystemResetWarning,0820.5,5.00,000.00,021.5,020.7,000.0,029.8,022.9,12.2,0000.0,0000.78,0001.72,0000.58
2023-12-08 09:43:00,SystemResetWarning,0820.8,5.01,000.00,021.5,020.7,000.0,029.8,022.9,12.6,0000.0,0000.82,0001.45,0000.61
2023-12-08 09:44:00,SystemResetWarning,0820.5,5.01,000.00,021.5,020.7,000.0,029.8,022.9,13.7,0000.0,0000.86,0001.56,0000.64
2023-12-08 09:45:00,SystemResetWarning,0820.6,5.00,000.00,021.5,020.6,000.0,029.8,022.9,14.1,0000.0,0000.90,0001.57,0000.67
2023-12-08 09:46:00,SystemResetWarning,0820.9,5.00,000.00,021.5,020.6,000.0,029.8,022.9,14.2,0000.0,0000.90,0001.47,0000.67
2023-12-08 09:47:00,SystemResetWarning,0820.5,4.99,000.00,021.5,020.6,000.0,029.8,022.9,14.3,0000.0,0000.92,0001.47,0000.68
2023-12-08 09:48:00,SystemResetWarning,0820.5,4.98,000.00,021.5,020.7,000.0,029.8,022.9,14.3,0000.0,0000.95,0001.52,0000.69
2023-12-08 09:49:00,SystemResetWarning,0820.6,5.00,000.00,021.6,020.7,000.0,029.8,022.9,14.3,0000.0,0001.00,0001.64,0000.70
2023-12-08 09:50:00,SystemResetWarning,0820.5,5.01,000.00,021.6,020.7,000.0,029.9,022.9,14.1,0000.0,0001.01,0002.39,0000.70
2023-12-08 09:51:00,SystemResetWarning,0820.5,5.01,000.00,021.6,020.7,000.0,029.9,022.9,14.0,0000.0,0001.05,0003.37,0000.71
2023-12-08 09:52:00,SystemResetWarning,0820.9,5.00,000.00,021.6,020.7,000.0,029.9,022.9,14.1,0000.0,0001.08,0003.81,0000.72
2023-12-08 09:53:00,SystemResetWarning,0820.6,4.99,000.00,021.6,020.7,000.0,029.9,022.9,14.1,0000.0,0001.12,0004.61,0000.74
2023-12-08 09:54:00,SystemResetWarning,0820.6,5.01,000.00,021.6,020.8,000.0,029.9,022.9,14.1,0000.0,0001.15,0004.93,0000.73
2023-12-08 09:55:00,SystemResetWarning,0820.6,5.01,000.00,021.6,020.8,000.0,029.9,022.9,14.2,0000.0,0001.18,0005.36,0000.73
2023-12-08 09:56:00,SystemResetWarning,0820.6,4.98,000.00,021.6,020.8,000.0,029.9,022.9,14.2,0000.0,0001.20,0006.07,0000.75
2023-12-08 09:57:00,SystemResetWarning,0820.7,5.00,000.00,021.6,020.8,000.0,029.9,022.9,14.0,0000.0,0001.29,0006.38,0000.79
2023-12-08 09:58:00,SystemResetWarning,0820.6,5.02,000.00,021.6,020.8,000.0,029.9,022.9,14.2,0000.0,0001.38,0006.63,0000.81
2023-12-08 09:59:00,SystemResetWarning,0820.6,4.99,000.00,021.6,020.8,000.0,029.9,023.0,14.3,0000.0,0001.40,0006.63,0000.84
